Tracking 31030 objects as of 16-Jul-2025
HD Live streaming from Space Station
objects crossing your sky now

ATLAS H R/B

Track ATLAS H R/B now!
10-day predictions


NORAD ID: 16592
Int'l Code: 1986-014B
Perigee: 755.6 km
Apogee: 1,232.2 km
Inclination: 63.3 °
Period: 104.8 minutes
Semi major axis: 7364 km
RCS: Unknown
Launch date: February 9, 1986
Source: United States (US)
Launch site: AIR FORCE WESTERN TEST RANGE (AFWTR)

Note: This is a ROCKET BODY
Your satellite tracking list
Your tracking list is empty




NASA's NSSDC Master Catalog

Two Line Element Set (TLE):
1 16592U 86014B   25196.94635813  .00001229  00000-0  97402-3 0  9993
2 16592  63.3367  27.0650 0323560 135.6145 227.1325 13.73588430314043
Source of the keplerian elements: McCants